Overview Statistics Trail Chart Weather Telemetry Raw packets
 

This is the latest recevied weather packets stored in our database for station/object KG5MMT-12. If no packets are shown the sender has not sent any weather packets the latest 10 day(s).

<< 110 111 112 113 114 115 >>
Time Temp. Humidity Pressure Rain* Wind** Luminosity Snow
1787856260 25° C 41% 0 hPa 0 mm - - -
1787855960 25° C 41% 0 hPa 0 mm - - -
1787855659 25° C 40% 0 hPa 0 mm - - -
1787855360 25° C 40% 0 hPa 0 mm - - -
1787855060 25° C 44% 0 hPa 0 mm - - -
1787854760 25° C 43% 0 hPa 0 mm - - -
1787854460 25.56° C 41% 0 hPa 0 mm - - -
1787854160 25° C 39% 0 hPa 0 mm - - -
1787853860 25.56° C 45% 0 hPa 0 mm - - -
1787853560 25° C 40% 0 hPa 0 mm - - -
1787853261 25° C 41% 0 hPa 0 mm - - -
1787852960 25° C 41% 0 hPa 0 mm - - -
1787852660 25° C 42% 0 hPa 0 mm - - -
1787852360 25° C 45% 0 hPa 0 mm - - -
1787852060 25° C 45% 0 hPa 0 mm - - -
1787851760 25° C 45% 0 hPa 0 mm - - -
1787851460 24.44° C 47% 0 hPa 0 mm - - -
1787851160 24.44° C 46% 0 hPa 0 mm - - -
1787850860 23.89° C 45% 0 hPa 0 mm - - -
1787850560 23.89° C 46% 0 hPa 0 mm - - -
1787850260 23.33° C 47% 0 hPa 0 mm - - -
1787849960 23.33° C 45% 0 hPa 0 mm - - -
1787849660 23.33° C 49% 0 hPa 0 mm - - -
1787849360 22.78° C 47% 0 hPa 0 mm - - -
1787849060 22.78° C 47% 0 hPa 0 mm - - -

* Rain latest hour (hover to see other rain measurements)
** Current wind speed in m/s (hover to see current wind gust speed)